Location: Arclight Observatory
(36.5667°N, 87.3333°W)
Time: 16:29:15
(UTC-05:00)

ISS - Visible Passes

Search period start: 16 September 2014 00:00
Search period end: 26 September 2014 00:00
Orbit: 414 x 417 km, 51.6° (Epoch: 16 September)

Date Brightness Start Highest point End Pass type
(mag) Time Alt. Az. Time Alt. Az. Time Alt. Az.
16 Sep 0.0 03:56:32 13° NE 03:56:32 13° NE 03:56:59 10° NE visible
16 Sep -1.1 05:29:26 13° NW 05:30:43 16° NNW 05:32:50 10° NNE visible
17 Sep -1.2 04:42:47 20° N 04:42:47 20° N 04:44:33 10° NNE visible
18 Sep 0.2 03:56:04 10° NNE 03:56:04 10° NNE 03:56:05 10° NNE visible
19 Sep -0.5 04:42:10 11° N 04:42:10 11° N 04:42:47 10° N visible
